CY-SAT-1

导读

CY-SAT-1(飓风卫星1号)是由美国爱荷华大学研发的3U纳卫星,于1998年11月20日发射升空,进入近地轨道运行。该卫星主要用于科学与教育领域,承担小行星观测技术的演示验证与教学实践任务,为学生提供小型卫星系统设计、研发的实践平台,同时验证了辐射计集成、小行星探测载荷等关键技术,是爱荷华大学卫星研发项目的奠基性成果,目前已无信号。

基本信息
目录编号:
61501
目录名称:
CY-SAT-1
国际标识:
1998-067WZ
轨道中心:
EARTH
卫星名称:
CY-SAT-1
卫星全名:
CY-SAT-1
卫星状态:
已陨落 最后检测时间 2025-01-14
发射日期:
1998-11-20 UTC
国别 :
美国 (US)
星等 :
--
轨道信息
数据来源 国际轨道数据
星历时间: 2025-01-08T15:57:33+0800
轨道信息已过期551天
半长轴: 6540.904km
偏心率: 0.0002121
轨道倾角: 51.610°
近地点辐角 115.676°
升交点赤经 6.503°
平近点角 244.448°
近地点: 161.381km
远地点: 164.157km
周期: 87.744分钟
每日圈数: 16.411421
详细信息
使用方式:
暂无